NOAA 16 DEB

Satellite information

Favourite Embed

Satellite Type and Status

DEBRISIN ORBIT

Key statistics

Satellite NOAA 16 DEB at a glance.

Uptime

9159

Days in orbit

Revolutions

≈ 14.2

Per day

Orbit

SSO

Sun Synchronous Orbit

Inclination

98.6

Latest

Satellite identification and parameters

Extended collection of information and parameters for NOAA 16 DEB.

Object identification

Identified? True

Debris? True

Object name: NOAA 16 DEB

International designator: 2000-055JX

Object number (NORAD): 41378

Object ID (CCSDS): 41378

Country: UNITED STATES OF AMERICA (US)

Current information (Y/N): Y

RCS size: SMALL

Orbital parameters

Period: 101.563 minutes

Inclination: 98.6444 deg

SMA: 7210.81 km

Apoapsis: 863.868 km

Periapsis: 801.482 km

RAAN: 307.3479 deg

Eccentricy: 0.00432585

Argument of periapsis: 116.7283 deg

Mean anomaly: 243.833 deg

Mean motion: 14.17838329 rev/day

Mean motion (dot): 0.00004337 rev/day2

B* drag term: 0.0021246229 1/REarth

Two-line elements (TLE)

Creation date: Oct. 18, 2025, 10:30 a.m.

Reference frame: TEME

Reference center: EARTH

Epoch: Oct. 18, 2025, 12:25 a.m. UTC

TLE line 0: 0 NOAA 16 DEB

TLE line 1: 1 41378U 00055JX 25291.01750842 .00004337 00000-0 21246-2 0 9993

TLE line 2: 2 41378 98.6444 307.3479 0043258 116.7283 243.8330 14.17838329502009

Live tracking on map

Real-time ground track for satellite NOAA 16 DEB.

In-orbit conjunctions

A list of the most updated potential collisions computed for object NOAA 16 DEB.

Target Orbit TCA Probability of collision Miss distance Type
SPOT 3 SSO 2025-05-10 19:40:19 0.0005182556 563.0 (m) PAYLOAD
COSMOS 2263 LEO 2024-09-12 11:34:25 0.000461174 95.0 (m) PAYLOAD

Associated space launch

The NOAA K, L and M POES satellites begin the fifth generation of improved environmental monitoring in support of NOAA missions. The instrument payload has significant improvements and additions/deletions. The instrument changes have effected the spacecraft subsystems and data formats.

NOAA 16 DEB was lifted into orbit during the mission ‘Titan II SLV | NOAA 16’, on board a Titan II SLV space rocket.

The launch took place on Sept. 21, 2000, 10:22 a.m. from Space Launch Complex 4W.

For more information about the launch, click the button.

Launch to space Titan II SLV | NOAA 16
Titan II SLV | NOAA 16

Agency: N/A

Status: Launch Successful

Launch date: Sept. 21, 2000, 10:22 a.m. UTC

Rocket: Titan II SLV

Launch pad: Space Launch Complex 4W

Location: Vandenberg SFB, CA, USA

...

Latest news about this satellite

There are no fresh news available about this satellite. Check back as we update our databases every day.


Newsletter sign-up

Weekly statistics, charts and insights to help you stay on top of the space industry.